Onweer radar Meer informatie blitzortung!


Regen radar Meer informatie rain snow radar


Bezoek onze andere website:

Template documentation
and downloads

And another site



15 daagse weersverwachting Renens (CH)

  • Overzicht
  • Per uur
  • 15 dagen
  • Extra
  • Vergelijk
  • Kaarten
  • Dagkaart
  • Meer »
  • Info
  • Statistieken
  • Directe link
    Temp 6h Neerslag Wind  
 08:02     17:32    Daglengte: 9:30 Vandaag
19:00
9.3 mm
7
 08:01     17:33    Daglengte: 9:32 Morgen
01:00
8.3 mm
5
07:00
21.3 mm
7
warningclass
13:00
23.3 mm
7
19:00
18.8 mm
7
 08:00     17:35    Daglengte: 9:35 Zaterdag 30 Jan
01:00
13.5 mm
6
07:00
4.3 mm
5
13:00
24.7 mm
5
19:00
29.4 mm
3
 07:59     17:36    Daglengte: 9:37 Zondag 31 Jan
01:00
22.4 mm
2
07:00
5.3 mm
2
13:00
52.1 mm
2
Locatie info
Region: Ouest Lausannois
Latitude: 46.5391°N
Longitude: 6.5794°E
441 masl
Postcode: 1020
Temp/Neerslag /Baro Onweer/Dauwpunt
    Temp Baro 1h Neerslag Dauwpunt Wind UV Bewolking  
 08:02     17:32    Daglengte: 9:30 Vandaag
17:00
Voelt als: 5.2°
1013.6 hPa 1.8 mm
82%
6.9°
7
Windvlaag: 3.8 m/s
90%
18:00
Voelt als: 5.3°
1013.7 hPa 1.4 mm
82%
7.0°
7
Windvlaag: 3.8 m/s
89%
19:00
Voelt als: 5.4°
1013.7 hPa 1.6 mm
81%
7.1°
7
Windvlaag: 2.5 m/s
90%
20:00
Voelt als: 5.5°
1013.8 hPa 1.3 mm
82%
7.2°
7
Windvlaag: 2.5 m/s
86%
21:00
Voelt als: 5.8°
1013.7 hPa 2.1 mm
82%
7.3°
6
Windvlaag: 2.3 m/s
90%
22:00
Voelt als: 5.8°
1013.4 hPa
75%
7.3°
6
Windvlaag: 2.9 m/s
85%
23:00
Voelt als: 5.8°
1013.0 hPa 1.7 mm
79%
7.2°
6
Windvlaag: 3.3 m/s
91%
 08:01     17:33    Daglengte: 9:32 Morgen
00:00
Voelt als: 5.2°
1012.7 hPa 1.3 mm
82%
6.8°
6
Windvlaag: 0.4 m/s
88%
01:00
Voelt als: 5.3°
1012.0 hPa 1.8 mm
82%
6.8°
5
Windvlaag: 0.6 m/s
91%
02:00
Voelt als: 5.5°
1011.2 hPa 2.7 mm
82%
6.7°
5
Windvlaag: 0.9 m/s
91%
03:00
Voelt als: 4.9°
1010.5 hPa 3.6 mm
82%
6.6°
6
Windvlaag: 1.2 m/s
91%
04:00
Voelt als: 5.6°
1009.2 hPa 3.9 mm
82%
6.9°
7
Windvlaag: 1.9 m/s
91%
05:00
Voelt als: 5.6°
1008.4 hPa 3.6 mm
82%
6.9°
7
Windvlaag: 2.7 m/s
91%
06:00
Voelt als: 5.5°
1008.0 hPa 3.9 mm
82%
7.3°
7
Windvlaag: 3.4 m/s
90%
07:00
Voelt als: 5.5°
1007.9 hPa 3.6 mm
82%
7.2°
7
Windvlaag: 4.1 m/s
90% warningclass
08:00
Voelt als: 5.6°
1008.3 hPa 3.6 mm
82%
7.3°
7
Windvlaag: 5.1 m/s
87% warningclass
09:00
Voelt als: 5.5°
1009.3 hPa 3.4 mm
82%
7.1°
7
Windvlaag: 4.9 m/s
80%
10:00
Voelt als: 5.7°
1009.8 hPa 2.9 mm
77%
7.0°
6
Windvlaag: 3.7 m/s
70%
11:00
Voelt als: 5.6°
1010.0 hPa 3.1 mm
79%
6.6°
6
Windvlaag: 2 m/s
75%
12:00
Voelt als: 5.7°
1010.1 hPa 6.3 mm
82%
6.3°
7
Windvlaag: 0.9 m/s
73%
13:00
Voelt als: 5.5°
1009.9 hPa 4.0 mm
82%
5.8°
7
Windvlaag: 2.6 m/s
75%
14:00
Voelt als: 5.3°
1009.5 hPa 3.3 mm
82%
5.5°
7
Windvlaag: 4.3 m/s
69%
15:00
Voelt als: 5.1°
1009.2 hPa 3.0 mm
82%
5.2°
8
Windvlaag: 4.4 m/s
68%
16:00
Voelt als: 4.9°
1008.8 hPa 3.1 mm
82%
5.3°
7
Windvlaag: 4.9 m/s
65%
17:00
Voelt als: 4.4°
1008.9 hPa 3.2 mm
82%
4.9°
8
Windvlaag: 5.4 m/s
69%
18:00
Voelt als: 3.9°
1009.3 hPa 3.0 mm
81%
5.0°
8
Windvlaag: 5.8 m/s
70%
19:00
Voelt als: 3.7°
1009.7 hPa 3.1 mm
73%
5.1°
7
Windvlaag: 5.6 m/s
72%
20:00
Voelt als: 3.6°
1010.0 hPa 4.4 mm
70%
5.2°
7
Windvlaag: 5.1 m/s
79%
21:00
Voelt als: 3.7°
1010.6 hPa 3.2 mm
73%
5.2°
6
Windvlaag: 3.6 m/s
75%
22:00
Voelt als: 3.7°
1010.9 hPa 3.0 mm
73%
5.3°
6
Windvlaag: 4 m/s
82%
23:00
Voelt als: 3.5°
1011.0 hPa
72%
5.2°
6
Windvlaag: 4.1 m/s
80%
 08:00     17:35    Daglengte: 9:35 Zaterdag 30 Jan
00:00
Voelt als: 3.2°
1011.1 hPa
72%
5.0°
6
Windvlaag: 3.7 m/s
83%
01:00
Voelt als: 3.3°
1011.0 hPa 3.0 mm
76%
4.8°
6
Windvlaag: 1.8 m/s
88%
02:00
Voelt als: 3.4°
1010.4 hPa
29%
4.6°
6
Windvlaag: 1.5 m/s
84%
03:00
Voelt als: 3.3°
1009.1 hPa
19%
4.1°
6
Windvlaag: 0.8 m/s
78%
04:00
Voelt als: 3.2°
1007.7 hPa
15%
3.7°
5
Windvlaag: 0.5 m/s
69%
05:00
Voelt als: 3.2°
1006.2 hPa
14%
3.6°
4
Windvlaag: 0.7 m/s
82%
06:00
Voelt als: 3.0°
1005.1 hPa
82%
3.5°
5
Windvlaag: 2.3 m/s
82%
07:00
Voelt als: 2.7°
1003.9 hPa 4.3 mm
82%
3.5°
5
Windvlaag: 2.6 m/s
91%
08:00
Voelt als: 3.0°
1002.9 hPa 4.4 mm
82%
3.5°
5
Windvlaag: 2.7 m/s
90%
09:00
Voelt als: 3.7°
1002.1 hPa 3.3 mm
82%
3.9°
4
Windvlaag: 2.8 m/s
90%
10:00
Voelt als: 3.8°
1001.5 hPa 3.5 mm
100%
4.7°
3
Windvlaag: 2.3 m/s
100%
11:00
Voelt als: 3.9°
1000.8 hPa 3.9 mm
100%
4.8°
3
Windvlaag: 2 m/s
100%
12:00
Voelt als: 3.5°
1000.0 hPa 4.8 mm
100%
4.8°
4
Windvlaag: 0.6 m/s
100%
13:00
Voelt als: 3.8°
998.9 hPa 4.9 mm
100%
5.4°
5
Windvlaag: 2.7 m/s
100%
14:00
Voelt als: 4.0°
997.7 hPa 5.0 mm
100%
5.6°
4
Windvlaag: 3.1 m/s
100%
15:00
Voelt als: 4.5°
997.2 hPa 4.7 mm
100%
5.8°
4
Windvlaag: 2.6 m/s
99%
16:00
Voelt als: 4.3°
997.1 hPa 4.4 mm
100%
5.8°
4
Windvlaag: 2.8 m/s
98%
17:00
Voelt als: 4.6°
997.2 hPa 4.2 mm
100%
5.9°
4
Windvlaag: 2.1 m/s
100%
18:00
Voelt als: 4.6°
997.4 hPa 5.8 mm
100%
5.7°
3
Windvlaag: 0.7 m/s
100%
19:00
Voelt als: 4.7°
997.6 hPa 5.3 mm
100%
5.6°
3
Windvlaag: 0.6 m/s
96%
20:00
Voelt als: 4.3°
997.6 hPa 4.0 mm
100%
5.4°
3
Windvlaag: -0.1 m/s
93%
21:00
Voelt als: 4.1°
997.6 hPa 5.2 mm
44%
5.2°
3
Windvlaag: 0 m/s
83%
22:00
Voelt als: 3.8°
997.7 hPa 3.8 mm
88%
4.9°
3
Windvlaag: 0.2 m/s
95%
23:00
Voelt als: 3.8°
997.7 hPa 5.4 mm
88%
4.9°
3
Windvlaag: -0.3 m/s
88%
 07:59     17:36    Daglengte: 9:37 Zondag 31 Jan
00:00
Voelt als: 3.9°
997.7 hPa 4.0 mm
84%
4.7°
2
Windvlaag: -0.2 m/s
89%
01:00
Voelt als: 3.9°
997.4 hPa
84%
4.6°
2
Windvlaag: 0.3 m/s
72%
02:00
Voelt als: 3.8°
997.2 hPa 5.3 mm
99%
4.3°
2
Windvlaag: 0.2 m/s
82%
03:00
Voelt als: 3.5°
996.8 hPa
100%
4.1°
2
Windvlaag: -0 m/s
86%
04:00
Voelt als: 3.4°
996.4 hPa
100%
4.0°
2
Windvlaag: -0.5 m/s
89%
05:00
Voelt als: 3.8°
996.3 hPa
92%
3.9°
2
Windvlaag: -0.2 m/s
70%
06:00
Voelt als: 3.4°
996.3 hPa
82%
3.7°
2
Windvlaag: 0.1 m/s
70%
07:00
Voelt als: 3.8°
996.9 hPa
85%
3.7°
2
Windvlaag: 0 m/s
84%
08:00
Voelt als: 3.9°
998.3 hPa 8.8 mm
99%
3.5°
2
Windvlaag: 6.6 m/s
83%
09:00
Voelt als: 4.0°
998.8 hPa 8.7 mm
100%
3.5°
2
Windvlaag: 7.1 m/s
82%
10:00
Voelt als: 4.7°
999.1 hPa 8.7 mm
100%
3.5°
2
Windvlaag: 6.3 m/s
81%
11:00
Voelt als: 5.2°
999.4 hPa 8.7 mm
100%
3.6°
2
Windvlaag: 5.8 m/s
79%
12:00
Voelt als: 5.6°
999.6 hPa
96%
3.8°
2
Windvlaag: 5.5 m/s
77%
13:00
Voelt als: 6.0°
999.7 hPa
94%
3.8°
2
Windvlaag: 0.8 m/s
77%
Temp/Neerslag /Baro Onweer/Dauwpunt
    Temp Baro Neerslag Dauwpunt Wind Bewolking  
 08:02     17:32    Daglengte: 9:30 Vandaag
19:00
Voelt als: 5.4°
1013.7 hPa 4.8 mm 7.1°
7
90%
22:00
Voelt als: 5.8°
1013.4 hPa 3.5 mm 7.3°
6
85%
 08:01     17:33    Daglengte: 9:32 Morgen
01:00
Voelt als: 5.3°
1012.0 hPa 4.8 mm 6.8°
5
91%
04:00
Voelt als: 5.6°
1009.2 hPa 10.2 mm 6.9°
7
91%
07:00
Voelt als: 5.5°
1007.9 hPa 11.1 mm 7.2°
7
90% warningclass
10:00
Voelt als: 5.7°
1009.8 hPa 9.9 mm 7.0°
6
70%
13:00
Voelt als: 5.5°
1009.9 hPa 13.5 mm 5.8°
7
75%
16:00
Voelt als: 4.9°
1008.8 hPa 9.5 mm 5.3°
7
65%
19:00
Voelt als: 3.7°
1009.7 hPa 9.3 mm 5.1°
7
72%
22:00
Voelt als: 3.7°
1010.9 hPa 10.6 mm 5.3°
6
82%
 08:00     17:35    Daglengte: 9:35 Zaterdag 30 Jan
01:00
Voelt als: 3.3°
1011.0 hPa 3.0 mm 4.8°
6
88%
04:00
Voelt als: 3.2°
1007.7 hPa   3.7°
5
69%
07:00
Voelt als: 2.7°
1003.9 hPa 4.3 mm 3.5°
5
91%
10:00
Voelt als: 3.8°
1001.5 hPa 11.2 mm 4.7°
3
100%
13:00
Voelt als: 3.8°
998.9 hPa 13.5 mm 5.4°
5
100%
16:00
Voelt als: 4.3°
997.1 hPa 14.1 mm 5.8°
4
98%
19:00
Voelt als: 4.7°
997.6 hPa 15.3 mm 5.6°
3
96%
22:00
Voelt als: 3.8°
997.7 hPa 13.0 mm 4.9°
3
95%
 07:59     17:36    Daglengte: 9:37 Zondag 31 Jan
01:00
Voelt als: 3.9°
997.4 hPa 9.4 mm 4.6°
2
72%
04:00
Voelt als: 3.4°
996.4 hPa 5.3 mm 4.0°
2
89%
07:00
Voelt als: 3.8°
996.9 hPa   3.7°
2
84%
10:00
Voelt als: 4.7°
999.1 hPa 26.2 mm 3.5°
2
81%
13:00
Voelt als: 6.0°
999.7 hPa 26.0 mm 3.8°
2
77%
16:00
Voelt als: 4.0°
1000.2 hPa 67.3 mm 2.8°
2
83%
19:00
Voelt als: 2.4°
999.5 hPa 67.3 mm 2.2°
2
90%
22:00
Voelt als: 1.8°
997.7 hPa 67.6 mm 2.6°
3
91%
 07:57     17:38    Daglengte: 9:41 Maandag 01 Feb
01:00
Voelt als: 1.6°
995.9 hPa 69.3 mm 2.9°
4
92%
04:00
Voelt als: 2.1°
995.4 hPa 73.0 mm 3.5°
3
92%
07:00
Voelt als: 2.8°
995.1 hPa 78.7 mm 3.9°
3
92%
10:00
Voelt als: 3.2°
996.0 hPa 84.6 mm 4.5°
3
92%
13:00
Voelt als: 3.7°
996.7 hPa 87.6 mm 5.0°
4
92%
16:00
Voelt als: 3.7°
999.9 hPa 90.7 mm 5.1°
4
91%
19:00
Voelt als: 3.8°
1003.3 hPa 94.8 mm 5.1°
4
90%
22:00
Voelt als: 4.1°
1006.7 hPa 97.4 mm 5.2°
4
91%
 07:56     17:39    Daglengte: 9:43 Dinsdag 02 Feb
01:00
Voelt als: 4.5°
1010.1 hPa 98.4 mm 5.2°
3
92%
04:00
Voelt als: 4.6°
1011.7 hPa 99.6 mm 5.2°
3
92%
07:00
Voelt als: 4.6°
1013.1 hPa 99.9 mm 5.2°
3
92%
10:00
Voelt als: 5.5°
1013.4 hPa 100.1 mm 5.6°
3
92%
13:00
Voelt als: 6.4°
1013.7 hPa 101.2 mm 6.1°
4
92%
16:00
Voelt als: 6.6°
1013.6 hPa 101.2 mm 5.8°
4
89%
19:00
Voelt als: 6.5°
1013.6 hPa 101.2 mm 5.4°
4
86%
22:00
Voelt als: 6.3°
1013.6 hPa 101.2 mm 5.7°
3
89%
 07:55     17:41    Daglengte: 9:46 Woensdag 03 Feb
01:00
Voelt als: 6.2°
1013.6 hPa 101.2 mm 6.0°
3
92%
04:00
Voelt als: 6.2°
1013.1 hPa 101.2 mm 6.2°
3
90%
07:00
Voelt als: 6.2°
1012.6 hPa 101.3 mm 6.5°
3
89%
10:00
Voelt als: 7.5°
1012.5 hPa 101.3 mm 7.3°
4
89%
13:00
11°
1012.4 hPa 101.3 mm 8.2°
4
90%
16:00
10°
1012.7 hPa 101.3 mm 7.8°
3
90%
19:00
10°
Voelt als: 9.0°
1013.1 hPa 101.3 mm 7.4°
2
90%
22:00
Voelt als: 8.1°
1013.3 hPa 101.3 mm 7.0°
2
87%
 07:53     17:42    Daglengte: 9:49 Donderdag 04 Feb
01:00
Voelt als: 7.3°
1013.4 hPa 101.3 mm 6.6°
2
84%
04:00
Voelt als: 7.4°
1012.4 hPa 101.3 mm 6.4°
2
83%
07:00
Voelt als: 7.5°
1011.5 hPa 101.3 mm 6.1°
2
82%
10:00
11°
1010.9 hPa 101.3 mm 7.0°
1
83%
13:00
13°
1010.2 hPa 101.3 mm 7.8°
1
83%
16:00
11°
1010.0 hPa   6.6°
1
87%
19:00
1009.9 hPa 204.2 mm 5.5°
1
90%
 07:52     17:44    Daglengte: 9:52 Vrijdag 05 Feb
01:00
Voelt als: 6.3°
1011.5 hPa 220.0 mm 4.7°
2
74%
07:00
Voelt als: 6.5°
1011.8 hPa 228.1 mm 3.0°
2
80%
13:00
14°
1011.6 hPa 238.5 mm 4.7°
2
59%
19:00
10°
Voelt als: 9.7°
1010.9 hPa 239.2 mm 3.8°
1
27%
 07:51     17:45    Daglengte: 9:54 Zaterdag 06 Feb
01:00
Voelt als: 7.8°
1012.4 hPa 239.3 mm 3.3°
2
27%
07:00
Voelt als: 5.0°
1012.5 hPa 239.7 mm 2.2°
2
0%
13:00
13°
1011.8 hPa 240.4 mm 6.0°
2
29%
19:00
Voelt als: 5.5°
1010.2 hPa 241.4 mm 4.5°
3
0%
 07:49     17:47    Daglengte: 9:58 Zondag 07 Feb
01:00
-1°
Voelt als: -7.3°
1016.1 hPa 241.9 mm -3.3°
7
1%
07:00
-2°
Voelt als: -9.1°
1019.0 hPa 242.3 mm -5.3°
8
1%
13:00
Voelt als: -1.2°
1012.8 hPa 0.7 mm -0.7°
3
89%
19:00
-0°
Voelt als: -3.7°
1014.6 hPa 1.1 mm -1.6°
3
87%
 07:48     17:48    Daglengte: 10:00 Maandag 08 Feb
01:00
-2°
Voelt als: -4.7°
1015.5 hPa 0.6 mm -2.9°
2
88%
07:00
-2°
Voelt als: -5.5°
1015.0 hPa 0.6 mm -3.6°
2
89%
13:00
Voelt als: -1.7°
1014.7 hPa 0.7 mm -1.9°
3
87%
19:00
-1°
Voelt als: -4.3°
1016.3 hPa 0.4 mm -2.7°
3
91%
 07:46     17:50    Daglengte: 10:04 Dinsdag 09 Feb
01:00
-3°
Voelt als: -5.8°
1017.6 hPa 0.4 mm -4.4°
2
78%
07:00
-4°
Voelt als: -6.8°
1017.2 hPa 0.2 mm -5.5°
2
73%
13:00
Voelt als: -0.1°
1016.0 hPa 0.2 mm -2.5°
2
69%
19:00
-1°
Voelt als: -4.0°
1017.3 hPa 0.3 mm -3.0°
2
74%
 07:45     17:51    Daglengte: 10:06 Woensdag 10 Feb
01:00
-3°
Voelt als: -5.1°
1019.0 hPa 0.5 mm -4.0°
2
76%
07:00
-4°
Voelt als: -5.3°
1019.4 hPa 0.6 mm -4.8°
1
68%
13:00
Voelt als: 1.1°
1018.4 hPa 0.8 mm -1.8°
1
57%
19:00
-1°
Voelt als: -2.4°
1019.9 hPa 0.3 mm -2.2°
1
57%
 07:43     17:53    Daglengte: 10:10 Donderdag 11 Feb
01:00
-2°
Voelt als: -3.5°
1021.4 hPa 0.6 mm -3.7°
1
57%
07:00
-2°
Voelt als: -3.1°
1020.8 hPa 0.5 mm -3.9°
1
66%
13:00
Voelt als: 2.8°
1019.5 hPa 0.8 mm -0.9°
1
68%
19:00
-0°
Voelt als: -0.4°
1020.7 hPa 0.5 mm -1.5°
1
69%
 07:42     17:55    Daglengte: 10:13 Vrijdag 12 Feb
01:00
-2°
Voelt als: -2.0°
1022.0 hPa 0.8 mm -2.9°
1
67%
07:00
-2°
Voelt als: -3.8°
1022.0 hPa 0.9 mm -3.9°
1
61%
13:00
Voelt als: 1.3°
1020.9 hPa 0.7 mm -1.1°
1
58%
  CAPE Lifted Index Hail Supercell Tornado SRH 3km CL BTM PRES CL TOP PRES Swiss DWD icon SMHI TS
 08:02     17:32    Daglengte: 9:30 Vandaag
17:00 4 J/kg 1.8 K 0 % 0 % 0 % 0 m²/s² 0 0 4.65 61
18:00 15 J/kg 2.3 K 0 % 0 % 0 % 0 m²/s² 0 0 5.9 61
19:00 22 J/kg 2.8 K 0 % 0 % 0 % 0 m²/s² 0 0 7.03 3
20:00 25 J/kg 3.5 K 0 % 0 % 0 % 0 m²/s² 0 0 7.82 61
21:00 34 J/kg 3.3 K 0 % 0 % 0 % 0 m²/s² 0 0 7.2 61
22:00 22 J/kg 3.5 K 0 % 0 % 0 % 0 m²/s² 0 0 6.26 3
23:00 16 J/kg 3.1 K 0 % 0 % 0 % 0 m²/s² 0 0 5.08 3
 08:01     17:33    Daglengte: 9:32 Morgen
00:00 28 J/kg 3.5 K 0 % 0 % 0 % 0 m²/s² 0 0 4.46 61
01:00 10 J/kg 3.0 K 0 % 0 % 0 % 0 m²/s² 0 0 3.15 61
02:00 0 J/kg 2.3 K 0 % 0 % 0 % 0 m²/s² 0 0 2.51 61
03:00 25 J/kg 2.8 K 0 % 0 % 0 % 0 m²/s² 0 0 3.01 61
04:00 6 J/kg 1.7 K 0 % 0 % 0 % 0 m²/s² 0 0 1.82 61
05:00 4 J/kg 0.5 K 0 % 0 % 0 % 0 m²/s² 0 0 0.5 80
06:00 7 J/kg -0.6 K 0 % 0 % 0 % 0 m²/s² 0 0 -0.3 80
07:00 200 J/kg -1.5 K 0 % 0 % 0 % 0 m²/s² 0 0 -1.02 95
08:00 537 J/kg -2.6 K 0 % 0 % 0 % 0 m²/s² 0 0 -1.22 95
09:00 694 J/kg -3.0 K 0 % 0 % 0 % 0 m²/s² 0 0 0.21 80
10:00 565 J/kg -2.5 K 0 % 0 % 0 % 0 m²/s² 0 0 0.38 3
11:00 479 J/kg -2.1 K 0 % 0 % 0 % 0 m²/s² 0 0 0.78 80
12:00 338 J/kg -1.6 K 0 % 0 % 0 % 0 m²/s² 0 0 0.83 3
13:00 224 J/kg -0.8 K 0 % 0 % 0 % 0 m²/s² 0 0 1.63 3
14:00 157 J/kg 0.2 K 0 % 0 % 0 % 0 m²/s² 0 0 3.65 80
15:00 106 J/kg 0.9 K 0 % 0 % 0 % 0 m²/s² 0 0 4.26 80
16:00 106 J/kg 0.7 K 0 % 0 % 0 % 0 m²/s² 0 0 2.05 80
17:00 111 J/kg 0.7 K 0 % 0 % 0 % 0 m²/s² 0 0 1.9 80
18:00 49 J/kg 3.0 K 0 % 0 % 0 % 0 m²/s² 0 0 4.71 80
19:00 26 J/kg 5.0 K 0 % 0 % 0 % 0 m²/s² 0 0 9.5 80
20:00 26 J/kg 6.1 K 0 % 0 % 0 % 0 m²/s² 0 0 11.89 3
21:00 35 J/kg 6.3 K 0 % 0 % 0 % 0 m²/s² 0 0 11.34 3
22:00 69 J/kg 6.5 K 0 % 0 % 0 % 0 m²/s² 0 0 10.4 3
23:00 66 J/kg 7.1 K 0 % 0 % 0 % 0 m²/s² 0 0 11.3 3
 08:00     17:35    Daglengte: 9:35 Zaterdag 30 Jan
00:00 80 J/kg 8.5 K 0 % 0 % 0 % 0 m²/s² 0 0 12.94 3
01:00 74 J/kg 9.4 K 0 % 0 % 0 % 0 m²/s² 0 0 15.73 80
02:00 43 J/kg 10.0 K 0 % 0 % 0 % 0 m²/s² 0 0 14.23 3
03:00 26 J/kg 10.7 K 0 % 0 % 0 % 0 m²/s² 0 0 11.78 2
04:00 0 J/kg 10.7 K 0 % 0 % 0 % 0 m²/s² 0 0 11.06 3
05:00 0 J/kg 7.8 K 0 % 0 % 0 % 0 m²/s² 0 0 8.22 3
06:00 0 J/kg 5.7 K 0 % 0 % 0 % 0 m²/s² 0 0 5.94 3
07:00 0 J/kg 5.3 K 0 % 0 % 0 % 0 m²/s² 0 0 5.42 61
08:00 2 J/kg 5.1 K 0 % 0 % 0 % 0 m²/s² 0 0 5.52 61
09:00 0 J/kg 4.4 K 0 % 0 % 0 % 0 m²/s² 0 0 4.58 61
10:00 1 J/kg 4.3 K 0 % 0 % 0 % 0 m²/s² 0 0 4.51 61
11:00 3 J/kg 2.9 K 0 % 0 % 0 % 0 m²/s² 0 0 3.14 61
12:00 10 J/kg 2.8 K 0 % 0 % 0 % 0 m²/s² 0 0 3.22 61
13:00 27 J/kg 3.3 K 0 % 0 % 0 % 0 m²/s² 0 0 3.54 61
14:00 39 J/kg 3.2 K 0 % 0 % 0 % 0 m²/s² 0 0 3.44 61
15:00 56 J/kg 2.4 K 0 % 0 % 0 % 0 m²/s² 0 0 2.73 61
16:00 22 J/kg 1.7 K 0 % 0 % 0 % 0 m²/s² 0 0 2.18 61
17:00 134 J/kg 1.5 K 0 % 0 % 0 % 0 m²/s² 0 0 2.1 61
18:00 187 J/kg 1.0 K 0 % 0 % 0 % 0 m²/s² 0 0 1.48 61
19:00 232 J/kg 0.9 K 0 % 0 % 0 % 0 m²/s² 0 0 1.8 3
20:00 246 J/kg 0.4 K 0 % 0 % 0 % 0 m²/s² 0 0 0.97 61
21:00 136 J/kg 0.5 K 0 % 0 % 0 % 0 m²/s² 0 0 0.83 3
22:00 100 J/kg 1.9 K 0 % 0 % 0 % 0 m²/s² 0 0 2.26 80
23:00 102 J/kg 2.2 K 0 % 0 % 0 % 0 m²/s² 0 0 2.68 3
 07:59     17:36    Daglengte: 9:37 Zondag 31 Jan
00:00 64 J/kg 2.8 K 0 % 0 % 0 % 0 m²/s² 0 0 3.28 80
01:00 55 J/kg 3.2 K 0 % 0 % 0 % 0 m²/s² 0 0 3.89 3
02:00 43 J/kg 3.2 K 0 % 0 % 0 % 0 m²/s² 0 0 4.58 61
03:00 31 J/kg 3.8 K 0 % 0 % 0 % 0 m²/s² 0 0 6.02 61
04:00 30 J/kg 3.9 K 0 % 0 % 0 % 0 m²/s² 0 0 6.06 61
05:00 20 J/kg 3.9 K 0 % 0 % 0 % 0 m²/s² 0 0 5.1 61
06:00 10 J/kg 4.1 K 0 % 0 % 0 % 0 m²/s² 0 0 4.7 3
07:00 6 J/kg 4.3 K 0 % 0 % 0 % 0 m²/s² 0 0 4.81 61
08:00 8 J/kg 4.4 K 0 % 0 % 0 % 0 m²/s² 0 0 5 61
09:00 3 J/kg 4.1 K 0 % 0 % 0 % 0 m²/s² 0 0 4.55 61
10:00 3 J/kg 3.5 K 0 % 0 % 0 % 0 m²/s² 0 0 3.98 61
11:00 4 J/kg 3.3 K 0 % 0 % 0 % 0 m²/s² 0 0 3.75 61
12:00 7 J/kg 4.3 K 0 % 0 % 0 % 0 m²/s² 0 0 4.87 61
13:00 11 J/kg 6.4 K 0 % 0 % 0 % 0 m²/s² 0 0 6.97 3
Temp Baro Wind Neerslag
  EWN Forecast EWN WRFDA DWD ICON FMI HIRLAM MET Norway GFS
 08:02     17:32    Daglengte: 9:30 Vandaag
19:00 8.8° 1013.7 hPa 6.8 m/s 4.8 mm 10.1° 1010.1 hPa 11.0 m/s 20.9 mm 7.9° 1014.3 hPa 3.6 m/s 0.7 mm 9.3° 1014.3 hPa 9.2 m/s 0.0 mm 7.9° 1014.0 hPa 5.0 m/s 9.5° 1013.5 hPa 6.5 m/s
22:00 8.9° 1013.4 hPa 6.2 m/s 3.5 mm 10.0° 1010.4 hPa 11.9 m/s 21.5 mm 8.0° 1013.4 hPa 3.3 m/s 0.4 mm 9.6° 1014.4 hPa 7.6 m/s 0.0 mm 7.9° 1013.9 hPa 4.3 m/s 9.7° 1013.6 hPa 5.6 m/s
 08:01     17:33    Daglengte: 9:32 Morgen
01:00 8.3° 1012.0 hPa 5.4 m/s 4.8 mm 9.7° 1009.0 hPa 7.3 m/s 22.4 mm 7.6° 1011.5 hPa 4.1 m/s 1.1 mm 9.5° 1012.7 hPa 7.4 m/s 0.0 mm 7.7° 1012.7 hPa 4.2 m/s 8.5° 1011.6 hPa 4.4 m/s
04:00 8.8° 1009.2 hPa 6.7 m/s 10.2 mm 9.4° 1005.1 hPa 7.7 m/s 36.9 mm 7.6° 1009.9 hPa 4.0 m/s 6.3 mm 9.5° 1009.0 hPa 7.9 m/s 0.0 mm 8.3° 1009.9 hPa 6.0 m/s 8.6° 1008.3 hPa 6.0 m/s
07:00 9.0° 1007.9 hPa 7.5 m/s 11.1 mm 10.0° 1003.7 hPa 11.3 m/s 50.1 mm 8.2° 1009.1 hPa 5.4 m/s 4.5 mm 9.8° 1007.3 hPa 9.1 m/s 0.0 mm 7.6° 1008.9 hPa 4.7 m/s 9.6° 1006.8 hPa 9.0 m/s
10:00 8.8° 1009.8 hPa 6.1 m/s 9.9 mm 10.1° 1006.4 hPa 6.8 m/s 53.8 mm 8.2° 1012.1 hPa 4.6 m/s 2.0 mm 9.2° 1008.5 hPa 6.2 m/s 0.0 mm 7.9° 1010.0 hPa 5.6 m/s 9.3° 1009.2 hPa 6.1 m/s
13:00 8.9° 1009.9 hPa 7.2 m/s 13.5 mm 10.1° 1006.1 hPa 8.4 m/s 55.5 mm 7.9° 1011.6 hPa 6.3 m/s 0.4 mm 9.4° 1007.7 hPa 7.3 m/s 0.0 mm 8.4° 1010.5 hPa 6.2 m/s 9.3° 1009.1 hPa 6.8 m/s
16:00 8.5° 1008.8 hPa 7.3 m/s 9.5 mm 9.5° 1004.9 hPa 8.5 m/s 56.8 mm 6.9° 1011.2 hPa 6.2 m/s 1.9 mm 9.1° 1005.9 hPa 8.4 m/s 0.0 mm 7.9° 1009.1 hPa 5.6 m/s 7.7° 1008.2 hPa 7.6 m/s
19:00 7.5° 1009.7 hPa 7.2 m/s 9.3 mm 8.4° 1006.1 hPa 10.0 m/s 57.4 mm 6.2° 1012.0 hPa 4.9 m/s 1.1 mm 8.2° 1006.5 hPa 8.2 m/s 0.0 mm 6.7° 1010.0 hPa 5.6 m/s 7.9° 1010.1 hPa 6.3 m/s
22:00 7.2° 1010.9 hPa 5.9 m/s 10.6 mm 8.3° 1008.5 hPa 9.7 m/s 58.0 mm 6.1° 1012.4 hPa 3.6 m/s 0.4 mm 7.9° 1007.8 hPa 6.2 m/s 0.0 mm 6.2° 1011.3 hPa 4.6 m/s 6.7° 1012.5 hPa 5.7 m/s
 08:00     17:35    Daglengte: 9:35 Zaterdag 30 Jan
01:00 6.8° 1011.0 hPa 5.8 m/s 3.0 mm 7.9° 1008.5 hPa 10.9 m/s 58.4 mm 5.7° 1012.3 hPa 3.9 m/s 0.4 mm 7.5° 1007.8 hPa 8.5 m/s 0.0 mm 6.2° 1011.4 hPa 5.5 m/s 7.5° 1012.4 hPa 5.5 m/s
04:00 6.6° 1007.7 hPa 5.3 m/s 0.0 mm 7.2° 1004.5 hPa 8.0 m/s 59.0 mm 5.5° 1009.0 hPa 3.9 m/s 0.0 mm 7.6° 1004.8 hPa 6.4 m/s 0.0 mm 6.0° 1008.1 hPa 3.5 m/s 5.7° 1008.7 hPa 3.8 m/s
07:00 6.2° 1003.9 hPa 5.3 m/s 4.3 mm 7.0° 1001.2 hPa 10.3 m/s 59.3 mm 5.2° 1004.4 hPa 4.1 m/s 0.6 mm 7.2° 1001.4 hPa 5.9 m/s 0.0 mm 5.1° 1004.3 hPa 2.8 m/s 6.2° 1004.2 hPa 3.8 m/s
10:00 6.2° 1001.5 hPa 3.1 m/s 11.2 mm 7.9° 998.1 hPa 7.7 m/s 62.0 mm 6.0° 1001.8 hPa 4.4 m/s 1.2 mm 5.3° 1001.9 hPa 2.8 m/s 5.7° 1001.0 hPa 4.0 m/s
13:00 6.8° 998.9 hPa 4.5 m/s 13.5 mm 9.1° 994.3 hPa 11.8 m/s 67.3 mm 5.8° 1000.0 hPa 3.9 m/s 5.7 mm 6.4° 999.1 hPa 2.0 m/s 6.5° 997.7 hPa 4.3 m/s
16:00 7.1° 997.1 hPa 4.3 m/s 14.1 mm 8.2° 994.4 hPa 11.1 m/s 70.1 mm 6.5° 998.2 hPa 3.9 m/s 4.2 mm 6.8° 997.1 hPa 2.9 m/s 7.1° 997.0 hPa 6.6 m/s
19:00 6.8° 997.6 hPa 2.9 m/s 15.3 mm 8.4° 994.6 hPa 8.2 m/s 72.5 mm 6.0° 998.4 hPa 2.9 m/s 0.3 mm 6.6° 997.8 hPa 2.5 m/s 6.5° 998.2 hPa 4.4 m/s
22:00 5.8° 997.7 hPa 2.6 m/s 13.0 mm 7.8° 995.1 hPa 5.7 m/s 75.3 mm 5.0° 997.9 hPa 1.3 m/s 1.0 mm 5.5° 998.0 hPa 2.5 m/s 6.3° 998.8 hPa 3.7 m/s
 07:59     17:36    Daglengte: 9:37 Zondag 31 Jan
01:00 5.5° 997.4 hPa 2.0 m/s 9.4 mm 6.9° 995.9 hPa 6.7 m/s 76.4 mm 4.6° 997.3 hPa 1.2 m/s 0.4 mm 5.2° 998.5 hPa 1.6 m/s 5.9° 999.1 hPa 3.7 m/s
04:00 5.0° 996.4 hPa 2.0 m/s 5.3 mm 6.2° 994.6 hPa 4.7 m/s 76.5 mm 4.3° 996.2 hPa 2.4 m/s 0.2 mm 4.7° 998.4 hPa 1.0 m/s 5.5° 997.9 hPa 2.1 m/s
07:00 5.1° 996.9 hPa 1.7 m/s 0.0 mm 5.9° 995.3 hPa 5.9 m/s 77.0 mm 3.9° 996.6 hPa 2.3 m/s 0.1 mm 4.9° 999.4 hPa 0.7 m/s 4.2° 998.7 hPa 1.3 m/s
10:00 6.0° 999.1 hPa 1.9 m/s 26.2 mm 6.2° 996.5 hPa 5.2 m/s 77.2 mm 4.4° 997.8 hPa 2.0 m/s 0.7 mm 6.3° 1000.6 hPa 1.1 m/s 5.4° 999.4 hPa 1.4 m/s
13:00 7.5° 999.7 hPa 2.3 m/s 26.0 mm 8.0° 997.0 hPa 5.0 m/s 77.4 mm 6.1° 997.8 hPa 2.6 m/s 0.2 mm 7.7° 1001.8 hPa 1.5 m/s 7.3° 999.7 hPa 1.6 m/s
16:00 5.4° 1000.2 hPa 1.9 m/s 67.3 mm 5.2° 1000.3 hPa 1.8 m/s 7.8° 999.5 hPa 3.3 m/s 67.3 mm
19:00 4.2° 999.5 hPa 2.0 m/s 67.3 mm 4.0° 999.5 hPa 1.9 m/s 6.3° 1000.0 hPa 3.5 m/s 67.3 mm
22:00 4.5° 997.7 hPa 3.1 m/s 67.6 mm 4.3° 997.7 hPa 3.0 m/s 6.6° 997.8 hPa 4.8 m/s 67.6 mm
 07:57     17:38    Daglengte: 9:41 Maandag 01 Feb
01:00 4.7° 995.9 hPa 3.9 m/s 69.3 mm 4.6° 995.9 hPa 4.0 m/s 6.2° 995.7 hPa 2.6 m/s 69.3 mm
04:00 4.9° 995.4 hPa 3.4 m/s 73.0 mm 4.8° 995.4 hPa 3.2 m/s 6.7° 995.9 hPa 5.7 m/s 73.0 mm
07:00 5.1° 995.1 hPa 2.8 m/s 78.7 mm 4.9° 994.9 hPa 2.4 m/s 7.3° 997.7 hPa 7.1 m/s 78.7 mm
10:00 5.8° 996.0 hPa 3.4 m/s 84.6 mm 5.6° 995.6 hPa 3.0 m/s 7.5° 1000.0 hPa 7.1 m/s 84.6 mm
13:00 6.5° 996.7 hPa 3.9 m/s 87.6 mm 6.3° 996.3 hPa 3.7 m/s 8.1° 1001.4 hPa 6.5 m/s 87.6 mm
16:00 6.5° 999.9 hPa 4.0 m/s 90.7 mm 6.4° 999.7 hPa 3.8 m/s 7.4° 1001.8 hPa 6.2 m/s 90.7 mm
19:00 6.6° 1003.3 hPa 3.9 m/s 94.8 mm 6.5° 1003.1 hPa 3.9 m/s 7.3° 1005.9 hPa 4.2 m/s 94.8 mm
22:00 6.7° 1006.7 hPa 3.6 m/s 97.4 mm 6.5° 1006.5 hPa 3.5 m/s 7.9° 1008.8 hPa 5.7 m/s 97.4 mm
 07:56     17:39    Daglengte: 9:43 Dinsdag 02 Feb
01:00 6.7° 1010.1 hPa 3.2 m/s 98.4 mm 6.6° 1010.0 hPa 3.0 m/s 8.0° 1011.7 hPa 5.1 m/s 98.4 mm
04:00 6.7° 1011.7 hPa 3.0 m/s 99.6 mm 6.6° 1011.5 hPa 2.9 m/s 7.6° 1013.8 hPa 3.6 m/s 99.6 mm
07:00 6.7° 1013.1 hPa 2.9 m/s 99.9 mm 6.6° 1013.0 hPa 2.8 m/s 7.6° 1014.8 hPa 4.5 m/s 99.9 mm
10:00 7.7° 1013.4 hPa 3.4 m/s 100.1 mm 7.6° 1013.4 hPa 3.2 m/s 8.5° 1014.5 hPa 5.0 m/s 100.1 mm
13:00 8.6° 1013.7 hPa 3.7 m/s 101.2 mm 8.6° 1013.7 hPa 3.6 m/s 8.5° 1013.5 hPa 4.4 m/s 101.2 mm
16:00 8.7° 1013.6 hPa 3.7 m/s 101.2 mm 8.6° 1013.7 hPa 3.5 m/s 10.7° 1012.9 hPa 5.8 m/s 101.2 mm
19:00 8.6° 1013.6 hPa 3.6 m/s 101.2 mm 8.5° 1013.6 hPa 3.5 m/s 9.6° 1013.6 hPa 5.1 m/s 101.2 mm
22:00 8.3° 1013.6 hPa 3.2 m/s 101.2 mm 8.2° 1013.6 hPa 3.1 m/s 9.4° 1013.8 hPa 4.3 m/s 101.2 mm
 07:55     17:41    Daglengte: 9:46 Woensdag 03 Feb
01:00 8.0° 1013.6 hPa 2.8 m/s 101.2 mm 7.8° 1013.6 hPa 2.7 m/s 9.7° 1013.2 hPa 4.0 m/s 101.2 mm
04:00 8.1° 1013.1 hPa 2.9 m/s 101.2 mm 7.9° 1013.2 hPa 2.9 m/s 9.9° 1011.5 hPa 4.0 m/s 101.2 mm
07:00 8.2° 1012.6 hPa 3.3 m/s 101.3 mm 8.0° 1012.8 hPa 3.0 m/s 10.0° 1010.9 hPa 6.2 m/s 101.3 mm
10:00 9.4° 1012.5 hPa 3.5 m/s 101.3 mm 9.2° 1012.7 hPa 3.3 m/s 11.1° 1010.8 hPa 6.1 m/s 101.3 mm
13:00 10.7° 1012.4 hPa 3.8 m/s 101.3 mm 10.5° 1012.6 hPa 3.6 m/s 13.1° 1009.8 hPa 6.4 m/s 101.3 mm
16:00 10.2° 1012.7 hPa 2.8 m/s 101.3 mm 10.0° 1013.0 hPa 2.6 m/s 12.5° 1008.8 hPa 4.6 m/s 101.3 mm
19:00 9.5° 1013.1 hPa 1.6 m/s 101.3 mm 9.5° 1013.5 hPa 1.6 m/s 9.8° 1009.1 hPa 1.7 m/s 101.3 mm
22:00 8.8° 1013.3 hPa 1.7 m/s 101.3 mm 8.8° 1013.7 hPa 1.7 m/s 8.7° 1009.1 hPa 1.4 m/s 101.3 mm
 07:53     17:42    Daglengte: 9:49 Donderdag 04 Feb
01:00 8.2° 1013.4 hPa 1.8 m/s 101.3 mm 8.2° 1013.9 hPa 1.8 m/s 8.3° 1008.2 hPa 1.7 m/s 101.3 mm
04:00 8.1° 1012.4 hPa 1.6 m/s 101.3 mm 8.2° 1013.0 hPa 1.7 m/s 7.6° 1006.2 hPa 0.5 m/s 101.3 mm
07:00 8.1° 1011.5 hPa 1.5 m/s 101.3 mm 8.2° 1012.1 hPa 1.6 m/s 7.3° 1004.9 hPa 0.5 m/s 101.3 mm
10:00 10.6° 1010.9 hPa 1.3 m/s 101.3 mm 10.8° 1011.5 hPa 1.4 m/s 8.4° 1004.2 hPa 0.1 m/s 101.3 mm
13:00 13.1° 1010.2 hPa 1.2 m/s 101.3 mm 13.4° 1010.9 hPa 1.2 m/s 10.2° 1002.8 hPa 1.7 m/s 101.3 mm
16:00 11.2° 1010.0 hPa 1.1 m/s 101.3 mm 11.3° 1010.6 hPa 0.9 m/s 10.4° 1002.5 hPa 2.5 m/s 101.3 mm
19:00 9.0° 1009.9 hPa 1.0 m/s 102.9 mm 9.2° 1010.4 hPa 0.7 m/s 6.8° 1004.9 hPa 4.3 m/s 102.9 mm
 07:52     17:44    Daglengte: 9:52 Vrijdag 05 Feb
01:00 7.2° 1011.5 hPa 1.7 m/s 110.8 mm 7.3° 1011.9 hPa 1.7 m/s 6.1° 1006.8 hPa 1.2 m/s 110.8 mm
07:00 7.3° 1011.8 hPa 1.5 m/s 116.0 mm 7.4° 1012.4 hPa 1.5 m/s 5.8° 1004.8 hPa 1.6 m/s 116.0 mm
13:00 13.9° 1011.6 hPa 1.6 m/s 119.6 mm 14.4° 1012.1 hPa 1.7 m/s 7.8° 1006.1 hPa 1.1 m/s 119.6 mm
19:00 9.7° 1010.9 hPa 0.6 m/s 119.6 mm 10.0° 1011.4 hPa 0.3 m/s 7.0° 1005.3 hPa 3.8 m/s 119.6 mm
 07:51     17:45    Daglengte: 9:54 Zaterdag 06 Feb
01:00 8.7° 1012.4 hPa 1.9 m/s 119.7 mm 8.9° 1013.1 hPa 1.5 m/s 6.8° 1004.5 hPa 6.8 m/s 119.7 mm
07:00 5.9° 1012.5 hPa 1.5 m/s 119.9 mm 6.0° 1013.4 hPa 0.9 m/s 5.3° 1002.7 hPa 8.7 m/s 119.9 mm
13:00 12.7° 1011.8 hPa 1.6 m/s 120.3 mm 13.5° 1012.4 hPa 1.0 m/s 3.9° 1004.9 hPa 8.4 m/s 120.3 mm
19:00 7.3° 1010.2 hPa 2.6 m/s 120.8 mm 7.9° 1010.2 hPa 2.2 m/s 0.5° 1010.8 hPa 6.9 m/s 120.8 mm
 07:49     17:47    Daglengte: 9:58 Zondag 07 Feb
01:00 -0.9° 1016.1 hPa 7.5 m/s 121.0 mm -0.9° 1016.1 hPa 7.5 m/s 121.0 mm
07:00 -2.2° 1019.0 hPa 7.9 m/s 121.2 mm -2.2° 1019.0 hPa 7.9 m/s 121.2 mm
13:00 1.9° 1012.8 hPa 3.0 m/s 0.7 mm
19:00 -0.2° 1014.6 hPa 2.9 m/s 1.1 mm
 07:48     17:48    Daglengte: 10:00 Maandag 08 Feb
01:00 -1.6° 1015.5 hPa 2.3 m/s 0.6 mm
07:00 -2.1° 1015.0 hPa 2.4 m/s 0.6 mm
13:00 1.3° 1014.7 hPa 2.8 m/s 0.7 mm
19:00 -1.0° 1016.3 hPa 2.5 m/s 0.4 mm
 07:46     17:50    Daglengte: 10:04 Dinsdag 09 Feb
01:00 -2.8° 1017.6 hPa 2.1 m/s 0.4 mm
07:00 -3.6° 1017.2 hPa 2.1 m/s 0.2 mm
13:00 1.8° 1016.0 hPa 1.8 m/s 0.2 mm
19:00 -1.3° 1017.3 hPa 2.0 m/s 0.3 mm
 07:45     17:51    Daglengte: 10:06 Woensdag 10 Feb
01:00 -2.7° 1019.0 hPa 1.6 m/s 0.5 mm
07:00 -3.5° 1019.4 hPa 1.3 m/s 0.6 mm
13:00 2.2° 1018.4 hPa 1.3 m/s 0.8 mm
19:00 -0.9° 1019.9 hPa 1.3 m/s 0.3 mm
 07:43     17:53    Daglengte: 10:10 Donderdag 11 Feb
01:00 -2.4° 1021.4 hPa 1.0 m/s 0.6 mm
07:00 -2.4° 1020.8 hPa 0.9 m/s 0.5 mm
13:00 2.9° 1019.5 hPa 0.8 m/s 0.8 mm
19:00 -0.2° 1020.7 hPa 0.8 m/s 0.5 mm
 07:42     17:55    Daglengte: 10:13 Vrijdag 12 Feb
01:00 -1.8° 1022.0 hPa 0.7 m/s 0.8 mm
07:00 -2.5° 1022.0 hPa 1.1 m/s 0.9 mm
13:00 2.7° 1020.9 hPa 1.5 m/s 0.7 mm
FMI Hirlam - 7.5 km EWN WRFDA - 12 km DWD ICON - 7 km GFS - 25 km Basiskaart






























































Updatetijd (Europe/Amsterdam) Resolutie Lengte Stap
FMI Hirlam 13:15, 19:15, 01:15, 07:15 7.5 km 49h 1h
EWN WRFDA 15:45, 21:45, 03:45, 09:45 12 km 73h 1h
DWD ICON 10:45, 16:45, 22:45, 04:45 7 km 75h 1h
GFS 13:00, 19:00, 01:00, 07:00 25 km 237h 3h
30+ mm
25-30 mm
20-25 mm
15-20 mm
10-15 mm
6-10 mm
4-6 mm
2-4 mm
1-2 mm
0.5-1 mm
0.2-0.5 mm
0.1-0.2 mm
30+ mm
25-30 mm
20-25 mm
15-20 mm
10-15 mm
6-10 mm
4-6 mm
2-4 mm
1-2 mm
0.5-1 mm
0.2-0.5 mm
0.1-0.2 mm
Sneeuwval
Natte sneeuw
Hagel
Vorst
30+ mm
25-30 mm
20-25 mm
15-20 mm
10-15 mm
6-10 mm
4-6 mm
2-4 mm
1-2 mm
0.5-1 mm
0.2-0.5 mm
0.1-0.2 mm
Sneeuwval
Natte sneeuw
Hagel
Vorst
Onweer
50 mm
40 mm
30 mm
26 mm
22 mm
18 mm
14 mm
10 mm
9 mm
8 mm
7 mm
6 mm
5 mm
4.5 mm
4 mm
3.5 mm
3 mm
2.5 mm
2 mm
1.5 mm
1 mm
0.8 mm
0.6 mm
0.4 mm
0.2 mm
0.05 mm
35°
30°
25°
20°
15°
10°
-5°
-10°
-15°
-20°
-25°
-30°
-35°
33> m/s
29 m/s
25 m/s
21 m/s
17 m/s
14 m/s
11 m/s
8 m/s
5 m/s
3 m/s
0 m/s
2600 J/kg
2400 J/kg
2200 J/kg
2000 J/kg
1800 J/kg
1600 J/kg
1400 J/kg
1200 J/kg
1000 J/kg
800 J/kg
600 J/kg
400 J/kg
200 J/kg
70 dBZ
65 dBZ
60 dBZ
55 dBZ
50 dBZ
45 dBZ
40 dBZ
35 dBZ
30 dBZ
25 dBZ
20 dBZ
15 dBZ
10 dBZ
5 dBZ
-1 K
-2 K
-3 K
-4 K
-5 K
-6 K
-7 K
-8 K
-9 K
950 m²/s²
900 m²/s²
850 m²/s²
800 m²/s²
750 m²/s²
700 m²/s²
650 m²/s²
600 m²/s²
550 m²/s²
500 m²/s²
450 m²/s²
400 m²/s²
350 m²/s²
300 m²/s²
250 m²/s²
200 m²/s²
150 m²/s²
100 m²/s²
46 m/s
44 m/s
42 m/s
40 m/s
38 m/s
36 m/s
34 m/s
32 m/s
30 m/s
28 m/s
26 m/s
24 m/s
22 m/s
20 m/s
16 m/s
12 m/s
8 m/s
4 m/s
30 m/s
28 m/s
26 m/s
24 m/s
22 m/s
20 m/s
18 m/s
16 m/s
14 m/s
12 m/s
10 m/s
8 m/s
6 m/s
4 m/s
2 m/s
3.0
2.8
2.6
2.4
2.2
2.0
1.8
1.6
1.4
1.2
1.0
0.8
0.6
0.4
0.2
15
14
13
12
11
10
9
8
7
6
5
4
3
2
1
90%
80%
70%
60%
50%
40%
30%
20%
10%
42
40
38
36
34
32
30
28
26
24
22
20
18
16
14
12
90+ cm
80-90 cm
70-80 cm
60-70 cm
50-60 cm
40-50 cm
30-40 cm
20-30 cm
10-20 cm
1-10 cm
Sneeuwval
Natte sneeuw
Regen
>120 mm
115 mm
110 mm
105 mm
100 mm
95 mm
90 mm
85 mm
80 mm
75 mm
70 mm
65 mm
60 mm
55 mm
50 mm
45 mm
45 mm
40 mm
35 mm
30 mm
25 mm
20 mm
15 mm
10 mm
5 mm
0.1 mm
960 hPa
880 hPa
800 hPa
720 hPa
640 hPa
560 hPa
584 gpdm
568 gpdm
552 gpdm
536 gpdm
520 gpdm
504 gpdm
488 gpdm
Extreem zwaar Noodweer Kans op onweer
15% 15% 5% 50% 15%

Dag




Kaart






35°
30°
25°
20°
15°
10°
-5°
-10°
-15°
-20°
-25°
-30°
-35°
33> m/s
29 m/s
25 m/s
21 m/s
17 m/s
14 m/s
11 m/s
8 m/s
5 m/s
3 m/s
0 m/s
Extreem zwaar Noodweer Kans op onweer
15% 15% 5% 50% 15%
>120 mm
115 mm
110 mm
105 mm
100 mm
95 mm
90 mm
85 mm
80 mm
75 mm
70 mm
65 mm
60 mm
55 mm
50 mm
45 mm
45 mm
40 mm
35 mm
30 mm